FW9014 Weather Reports


time (UTC)temp
F
wind
direction
speed
knots
gust
knots
rain 1hr
in
rain 24hr
in
rain mn
in
humidity
%
barometer
mb
20260505153047 75 214 9.6 13.0 0.00 0.01 0.00 87 1009.9
20260505151553 75 196 8.7 12.2 0.00 0.01 0.00 87 1009.9
20260505150105 74 205 10.4 15.6 0.00 0.01 0.00 88 1009.8
20260505124553 70 177 9.6 13.9 0.00 0.01 0.00 93 1009.4
20260505123057 69 164 9.6 13.0 0.00 0.01 0.00 92 1009.0
20260505121544 69 179 8.7 12.2 0.00 0.01 0.00 93 1009.4
20260505120051 69 163 9.6 13.0 0.00 0.01 0.00 93 1009.1
20260505114552 68 171 7.8 12.2 0.00 0.01 0.00 93 1009.3
20260505113047 68 187 8.7 12.2 0.00 0.01 0.00 93 1009.3
20260505111546 68 174 10.4 15.6 0.00 0.01 0.00 93 1008.8
20260505101551 68 171 7.8 11.3 0.00 0.01 0.00 92 1009.0
20260505100048 68 167 9.6 12.2 0.00 0.01 0.00 91 1008.8
20260505094552 68 165 9.6 11.3 0.00 0.01 0.00 91 1009.0
20260505093053 68 186 8.7 10.4 0.00 0.01 0.00 91 1009.2
20260505091543 68 175 7.8 12.2 0.00 0.01 0.00 90 1009.4
20260505090053 68 182 8.7 11.3 0.00 0.01 0.00 90 1009.4
20260505084554 69 171 7.8 10.4 0.00 0.01 0.00 89 1009.4
20260505083058 69 171 7.0 9.6 0.00 0.01 0.00 89 1009.7
20260505081558 69 175 7.0 10.4 0.00 0.01 0.00 88 1009.9
20260505080051 69 171 8.7 11.3 0.00 0.01 0.00 88 1009.6
20260505074542 70 176 8.7 10.4 0.00 0.02 0.00 87 1009.8
20260505073049 70 198 9.6 13.0 0.00 0.02 0.00 86 1009.9
20260505071550 70 194 9.6 13.0 0.00 0.02 0.00 86 1010.1
20260505070048 71 201 11.3 15.6 0.00 0.02 0.00 85 1010.2
20260505064549 71 191 11.3 15.6 0.00 0.02 0.00 85 1010.5
20260505063051 71 194 12.2 15.6 0.00 0.02 0.00 84 1010.4
20260505061550 71 201 12.2 16.5 0.00 0.02 0.00 83 1010.4
20260505060052 72 198 13.9 20.9 0.00 0.02 0.00 83 1010.6
20260505054556 72 197 14.8 19.1 0.00 0.02 0.00 82 1010.5
20260505053047 72 200 14.8 20.0 0.00 0.02 0.00 83 1010.7
20260505051544 72 198 15.6 19.1 0.00 0.02 0.00 82 1010.9
20260505041549 71 188 13.9 20.0 0.01 0.02 0.02 83 1011.0
20260505040047 71 186 14.8 21.7 0.01 0.02 0.02 82 1011.2
20260505034552 71 186 14.8 19.1 0.00 0.01 0.01 82 1011.1
20260505033049 71 186 15.6 20.0 0.00 0.01 0.01 82 1011.2
20260505031557 71 177 15.6 21.7 0.00 0.01 0.01 82 1011.2
20260505024551 72 181 16.5 21.7 0.00 0.01 0.01 80 1011.1
20260505023048 72 179 15.6 22.6 0.00 0.01 0.01 79 1010.9
20260505021550 72 182 16.5 22.6 0.00 0.01 0.01 79 1010.8
20260505020050 73 185 16.5 21.7 0.00 0.01 0.01 78 1010.6
20260505014602 73 196 16.5 22.6 0.00 0.01 0.01 78 1010.5
20260505013047 73 180 14.8 20.0 0.00 0.01 0.01 77 1010.6
20260505011551 73 178 15.6 21.7 0.00 0.01 0.01 77 1010.5
20260505010045 73 174 17.4 23.5 0.00 0.01 0.01 75 1010.4
20260505004556 74 194 17.4 22.6 0.00 0.01 0.01 76 1010.6
20260505003047 74 180 17.4 21.7 0.00 0.01 0.01 74 1010.6
20260505001548 74 174 16.5 23.5 0.00 0.01 0.01 75 1010.7
20260505000057 75 182 14.8 22.6 0.00 0.01 0.01 73 1010.7
20260504234553 75 180 14.8 20.0 0.00 0.01 0.01 74 1010.5
20260504233052 75 190 16.5 25.2 0.00 0.01 0.01 73 1010.7
20260504231547 76 174 13.9 21.7 0.00 0.01 0.01 73 1011.1
20260504230050 76 187 14.8 20.0 0.00 0.01 0.01 72 1011.0
20260504224548 76 169 14.8 20.9 0.00 0.01 0.01 72 1011.2
20260504223054 76 171 16.5 21.7 0.00 0.01 0.01 71 1011.3
20260504221549 76 164 12.2 18.2 0.00 0.01 0.01 71 1011.4
20260504220048 77 182 11.3 16.5 0.00 0.01 0.01 70 1011.5
20260504214554 77 191 10.4 17.4 0.00 0.01 0.01 67 1011.7
20260504213048 77 191 11.3 16.5 0.00 0.01 0.01 67 1012.0
20260504211550 77 182 11.3 17.4 0.00 0.01 0.01 68 1012.1
20260504210059 77 213 9.6 15.6 0.00 0.01 0.01 64 1012.4
20260504204606 77 196 12.2 16.5 0.00 0.01 0.01 62 1012.4
20260504203101 77 199 12.2 18.2 0.00 0.01 0.01 63 1012.8
20260504201550 77 191 10.4 13.9 0.00 0.01 0.01 66 1013.3
20260504200049 78 200 7.8 13.9 0.00 0.01 0.01 62 1013.3
20260504194549 77 196 9.6 14.8 0.00 0.01 0.01 62 1013.7
20260504193057 77 215 10.4 16.5 0.00 0.01 0.01 61 1013.7
20260504191557 77 201 10.4 18.2 0.00 0.01 0.01 61 1013.9
20260504190054 77 207 10.4 12.2 0.00 0.01 0.01 59 1014.1
20260504184549 76 188 8.7 13.9 0.00 0.01 0.01 60 1014.2
20260504183047 76 195 10.4 14.8 0.00 0.01 0.01 62 1014.4
20260504181553 75 200 11.3 17.4 0.00 0.01 0.01 61 1014.6
20260504180106 75 209 9.6 13.0 0.00 0.01 0.01 62 1014.7
20260504174547 75 205 10.4 17.4 0.00 0.01 0.01 63 1015.1
20260504173109 74 200 11.3 17.4 0.00 0.01 0.01 63 1015.2
20260504171551 74 192 8.7 13.9 0.00 0.01 0.01 63 1015.3